Weather History for KSNL - September, 2012

Change the Weather History Date:

Monday, September 24, 2012

  Actual Average (KTIK) Record (KTIK)
Temperature  
Mean Temperature 80 °F -  
Max Temperature 96 °F 77 °F 93 °F (2012)
Min Temperature 64 °F 57 °F 48 °F (2000)
Cooling Degree Days 15    
Growing Degree Days 30 (Base 50)    
Moisture  
Dew Point 60 °F    
Average Humidity 56    
Maximum Humidity 78    
Minimum Humidity 32    
Precipitation  
Precipitation 0.00 in - - ()
Sea Level Pressure  
Sea Level Pressure 30.04 in    
Wind  
Wind Speed 12 mph (South)    
Max Wind Speed 23 mph    
Max Gust Speed 30 mph    
Visibility 10 miles    
Events      
Averages and records for this station are not official NWS values.
T = Trace of Precipitation, MM = Missing Value Source: NWS Daily Summary

Daily Weather History Graph

Daily Weather History Graph

Search for Another Location

Airport or City:

Trip Planner

Search our weather history database for the weather conditions in past years. The results will help you decide how hot, cold, wet, or windy it might be!

Date:

Astronomy

Sep. 24, 2012 Rise Set
Actual Time 7:17 AM CDT 7:20 PM CDT
Civil Twilight 6:52 AM CDT 7:46 PM CDT
Nautical Twilight 6:22 AM CDT 8:15 PM CDT
Astronomical Twilight 5:52 AM CDT 8:45 PM CDT
Moon 3:58 PM CDT (9/24) 1:46 AM CDT (9/24)
Length of Visible Light 12h 53m
Length of Day
12h 03m
Waxing Gibbous, 71% of the Moon is Illuminated
Sep 24
Waxing Gibbous
Sep 29
Full
Oct 8
Last Quarter
Oct 15
New
Oct 21
First Quarter

Hourly Weather History & Observations

Time (CDT) Temp. Heat Index Dew Point Humidity Pressure Visibility Wind Dir Wind Speed Gust Speed Precip Events Conditions
12:15 AM 68.0 °F - 59.0 °F 73% 30.12 in 10.0 mi East 8.1 mph - N/A   Clear
12:35 AM 68.0 °F - 59.0 °F 73% 30.12 in 10.0 mi East 6.9 mph - N/A   Clear
12:55 AM 68.0 °F - 59.0 °F 73% 30.12 in 10.0 mi ESE 8.1 mph - N/A   Clear
1:15 AM 68.0 °F - 59.0 °F 73% 30.10 in 10.0 mi SE 9.2 mph - N/A   Clear
1:35 AM 68.0 °F - 59.0 °F 73% 30.10 in 10.0 mi SE 11.5 mph - N/A   Clear
1:55 AM 71.6 °F - 60.8 °F 69% 30.10 in 10.0 mi SE 11.5 mph - N/A   Clear
2:15 AM 69.8 °F - 59.0 °F 68% 30.11 in 10.0 mi SE 10.4 mph - N/A   Clear
2:55 AM 68.0 °F - 59.0 °F 73% 30.09 in 10.0 mi SE 11.5 mph 16.1 mph N/A   Clear
3:15 AM 68.0 °F - 59.0 °F 73% 30.09 in 10.0 mi SSE 8.1 mph - N/A   Clear
3:35 AM 68.0 °F - 60.8 °F 78% 30.08 in 10.0 mi SSE 11.5 mph - N/A   Clear
3:55 AM 68.0 °F - 59.0 °F 73% 30.09 in 10.0 mi SSE 8.1 mph - N/A   Clear
4:15 AM 68.0 °F - 59.0 °F 73% 30.09 in 10.0 mi SSE 8.1 mph - N/A   Clear
4:55 AM 68.0 °F - 59.0 °F 73% 30.07 in 10.0 mi SSE 17.3 mph - N/A   Clear
5:15 AM 68.0 °F - 59.0 °F 73% 30.06 in 10.0 mi SSE 15.0 mph - N/A   Clear
5:35 AM 68.0 °F - 59.0 °F 73% 30.07 in 10.0 mi SSE 15.0 mph 24.2 mph N/A   Clear
5:55 AM 68.0 °F - 59.0 °F 73% 30.09 in 10.0 mi SSE 10.4 mph - N/A   Clear
6:15 AM 68.0 °F - 59.0 °F 73% 30.08 in 10.0 mi SSE 12.7 mph 17.3 mph N/A   Clear
6:35 AM 66.2 °F - 59.0 °F 78% 30.10 in 10.0 mi SSE 9.2 mph - N/A   Clear
6:55 AM 66.2 °F - 59.0 °F 78% 30.10 in 10.0 mi SSE 9.2 mph - N/A   Clear
7:15 AM 64.4 °F - 57.2 °F 77% 30.09 in 10.0 mi SSE 15.0 mph - N/A   Clear
7:35 AM 64.4 °F - 57.2 °F 77% 30.10 in 10.0 mi SSE 13.8 mph - N/A   Clear
7:55 AM 64.4 °F - 57.2 °F 77% 30.11 in 10.0 mi SSE 11.5 mph - N/A   Clear
8:15 AM 64.4 °F - 57.2 °F 77% 30.12 in 10.0 mi SE 8.1 mph - N/A   Clear
8:35 AM 66.2 °F - 57.2 °F 73% 30.12 in 10.0 mi SSE 10.4 mph - N/A   Clear
8:55 AM 68.0 °F - 59.0 °F 73% 30.12 in 10.0 mi SSE 9.2 mph 16.1 mph N/A   Clear
9:15 AM 68.0 °F - 59.0 °F 73% 30.12 in 10.0 mi SSE 15.0 mph 18.4 mph N/A   Clear
9:35 AM 69.8 °F - 60.8 °F 73% 30.13 in 10.0 mi SSE 11.5 mph 16.1 mph N/A   Clear
9:55 AM 71.6 °F - 59.0 °F 64% 30.12 in 10.0 mi SSE 12.7 mph 19.6 mph N/A   Clear
10:15 AM 73.4 °F - 60.8 °F 65% 30.12 in 10.0 mi South 11.5 mph - N/A   Clear
10:35 AM 77.0 °F - 62.6 °F 61% 30.12 in 10.0 mi South 11.5 mph - N/A   Clear
10:55 AM 77.0 °F - 60.8 °F 57% 30.12 in 10.0 mi South 16.1 mph - N/A   Clear
11:15 AM 78.8 °F - 62.6 °F 57% 30.11 in 10.0 mi SSE 11.5 mph - N/A   Clear
11:35 AM 80.6 °F 81.8 °F 62.6 °F 54% 30.10 in 10.0 mi South 15.0 mph - N/A   Clear
11:55 AM 82.4 °F 83.4 °F 62.6 °F 51% 30.09 in 10.0 mi SSW 17.3 mph 20.7 mph N/A   Clear
12:15 PM 84.2 °F 85.0 °F 62.6 °F 48% 30.08 in 10.0 mi SSW 16.1 mph - N/A   Clear
12:35 PM 86.0 °F 87.3 °F 64.4 °F 48% 30.07 in 10.0 mi South 10.4 mph - N/A   Clear
12:55 PM 89.6 °F 91.1 °F 64.4 °F 43% 30.06 in 10.0 mi SW 12.7 mph 18.4 mph N/A   Clear
1:15 PM 91.4 °F 93.2 °F 64.4 °F 41% 30.04 in 10.0 mi SW 16.1 mph 23.0 mph N/A   Clear
1:35 PM 91.4 °F 94.0 °F 66.2 °F 43% 30.03 in 10.0 mi SSW 13.8 mph 19.6 mph N/A   Clear
1:55 PM 91.4 °F 93.2 °F 64.4 °F 41% 30.02 in 10.0 mi SSW 15.0 mph 20.7 mph N/A   Clear
2:15 PM 91.4 °F 92.1 °F 62.6 °F 38% 30.00 in 10.0 mi SSW 16.1 mph 23.0 mph N/A   Clear
2:35 PM 91.4 °F 92.1 °F 62.6 °F 38% 29.99 in 10.0 mi SSW 17.3 mph 23.0 mph N/A   Clear
2:55 PM 91.4 °F 92.1 °F 62.6 °F 38% 29.98 in 10.0 mi SW 20.7 mph 28.8 mph N/A   Clear
3:15 PM 95.0 °F 97.0 °F 64.4 °F 36% 29.96 in 10.0 mi SSW 23.0 mph 27.6 mph N/A   Clear
3:35 PM 95.0 °F 96.0 °F 62.6 °F 34% 29.95 in 10.0 mi SSW 18.4 mph 28.8 mph N/A   Clear
3:55 PM 95.0 °F 97.0 °F 64.4 °F 36% 29.94 in 10.0 mi SSW 16.1 mph 29.9 mph N/A   Clear
4:15 PM 95.0 °F 96.0 °F 62.6 °F 34% 29.94 in 10.0 mi SSW 13.8 mph 21.9 mph N/A   Clear
4:35 PM 96.8 °F 98.0 °F 62.6 °F 32% 29.93 in 10.0 mi SSW 16.1 mph 26.5 mph N/A   Clear
4:55 PM 95.0 °F 95.2 °F 60.8 °F 32% 29.93 in 10.0 mi SW 17.3 mph 26.5 mph N/A   Clear
5:15 PM 91.4 °F 91.4 °F 60.8 °F 36% 29.92 in 10.0 mi SSW 21.9 mph 27.6 mph N/A   Clear
5:35 PM 91.4 °F 91.4 °F 60.8 °F 36% 29.92 in 10.0 mi SSW 12.7 mph - N/A   Clear
5:55 PM 91.4 °F 91.4 °F 60.8 °F 36% 29.92 in 10.0 mi SSW 16.1 mph 21.9 mph N/A   Clear
6:55 PM 91.4 °F 92.1 °F 62.6 °F 38% 29.91 in 10.0 mi SSW 18.4 mph 23.0 mph N/A   Clear
7:15 PM 91.4 °F 92.1 °F 62.6 °F 38% 29.92 in 10.0 mi SSW 12.7 mph 24.2 mph N/A   Clear
8:15 PM 87.8 °F 87.1 °F 59.0 °F 38% 29.92 in 10.0 mi SSW 11.5 mph - N/A   Clear
8:35 PM 86.0 °F 85.4 °F 59.0 °F 40% 29.92 in 10.0 mi South 9.2 mph - N/A   Clear
8:55 PM 86.0 °F 84.9 °F 57.2 °F 37% 29.92 in 10.0 mi South 9.2 mph - N/A   Clear
9:15 PM 82.4 °F 82.0 °F 57.2 °F 42% 29.93 in 10.0 mi South 9.2 mph - N/A   Clear
9:35 PM 84.2 °F 83.5 °F 57.2 °F 40% 29.93 in 10.0 mi South 13.8 mph - N/A   Clear
9:55 PM 84.2 °F 83.8 °F 59.0 °F 42% 29.93 in 10.0 mi South 11.5 mph 18.4 mph N/A   Clear
10:15 PM 84.2 °F 83.8 °F 59.0 °F 42% 29.93 in 10.0 mi South 13.8 mph 19.6 mph N/A   Clear
10:55 PM 82.4 °F 82.5 °F 59.0 °F 45% 29.93 in 10.0 mi South 12.7 mph 19.6 mph N/A   Clear
11:15 PM 82.4 °F 82.5 °F 59.0 °F 45% 29.93 in 10.0 mi South 12.7 mph 19.6 mph N/A   Clear
11:55 PM 82.4 °F 82.5 °F 59.0 °F 45% 29.93 in 10.0 mi South 12.7 mph 17.3 mph N/A   Clear